This demonstration page uses our WeatherBlox Daily Observations layout. Learn more.

Hourly Observations for February 10, 2018

Temp ( °F °C ) Dew Point ( °F °C ) Humidity (%) Winds ( mph kmh ) Pressure ( in mb ) Visibility ( mi km ) Precip ( " mm )
12:15 am 00:15 Cloudy with Light Snow 6 -14.6 2 -16.4 86 86 N 15 24 30.5 1033 5 8.0467 0 0
12:35 am 00:35 Cloudy with Light Snow 6 -14.5 3 -16.2 87 87 N 12 19 30.5 1033 5 8.0467 0 0
12:55 am 00:55 Cloudy with Light Snow 6 -14.5 3 -16.3 86 86 N 14 22 30.5 1033 10 16.0934 0 0
1:15 am 01:15 Cloudy 6 -14.5 2 -16.5 85 85 N 10 17 30.5 1033 10 16.0934 0 0
1:35 am 01:35 Cloudy 6 -14.5 2 -16.5 85 85 N 10 17 30.5 1033 10 16.0934 0 0
1:55 am 01:55 Cloudy 6 -14.5 2 -16.4 86 86 N 12 19 30.5 1033 10 16.0934 0 0
2:15 am 02:15 Cloudy 6 -14.5 2 -16.7 84 84 N 15 24 30.5 1033 10 16.0934 0 0
2:35 am 02:35 Cloudy 6 -14.5 2 -16.6 84 84 N 10 17 30.48 1032 10 16.0934 0 0
2:55 am 02:55 Cloudy 6 -14.7 1 -17 83 83 N 10 17 30.48 1032 10 16.0934 0 0
3:15 am 03:15 Cloudy 6 -14.7 1 -17.1 82 82 N 10 17 30.48 1032 10 16.0934 0 0
3:35 am 03:35 Cloudy 6 -14.7 1 -17 83 83 N 10 17 30.5 1033 10 16.0934 0 0
3:55 am 03:55 Mostly Cloudy 5 -15 1 -17.3 83 83 N 10 17 30.48 1032 10 16.0934 0 0
4:15 am 04:15 Partly Cloudy 5 -15.1 1 -17.3 83 83 N 10 17 30.48 1032 10 16.0934 0 0
4:35 am 04:35 Partly Cloudy 4 -15.3 1 -17.5 83 83 N 9 15 30.48 1032 10 16.0934 0 0
4:55 am 04:55 Partly Cloudy 4 -15.5 0 -17.7 83 83 N 8 13 30.48 1032 10 16.0934 0 0
5:15 am 05:15 Partly Cloudy 4 -15.7 0 -17.8 84 84 N 8 13 30.48 1032 10 16.0934 0 0
5:35 am 05:35 Clear 3 -16.3 -1 -18.3 85 85 N 7 11 30.5 1033 10 16.0934 0 0
5:55 am 05:55 Clear 1 -17.1 -2 -19 85 85 N 6 9 30.5 1033 10 16.0934 0 0
6:15 am 06:15 Clear 0 -17.7 -3 -19.6 85 85 N 3 6 30.5 1033 10 16.0934 0 0
6:35 am 06:35 Mostly Cloudy 0 -17.9 -4 -19.8 85 85 N 6 9 30.5 1033 10 16.0934 0 0
6:55 am 06:55 Cloudy 0 -17.7 -3 -19.7 85 85 N 7 11 30.48 1032 10 16.0934 0 0
7:15 am 07:15 Cloudy 0 -17.8 -4 -19.8 84 84 N 6 9 30.48 1032 10 16.0934 0 0
7:35 am 07:35 Cloudy 1 -17.5 -3 -19.5 85 85 NNW 5 7 30.5 1033 10 16.0934 0 0
7:55 am 07:55 Cloudy 1 -17.1 -3 -19.3 83 83 N 8 13 30.48 1032 10 16.0934 0 0
8:15 am 08:15 Mostly Cloudy 1 -17.2 -3 -19.5 82 82 NNW 8 13 30.48 1032 10 16.0934 0 0
8:35 am 08:35 Mostly Cloudy 1 -17 -3 -19.3 82 82 N 9 15 30.48 1032 10 16.0934 0 0
8:55 am 08:55 Cloudy 1 -17 -3 -19.5 81 81 N 9 15 30.48 1032 10 16.0934 0 0
9:15 am 09:15 Cloudy 2 -16.7 -2 -19.1 82 82 N 9 15 30.48 1032 10 16.0934 0 0
9:35 am 09:35 Mostly Cloudy 2 -16.6 -3 -19.2 80 80 N 8 13 30.48 1032 10 16.0934 0 0
9:55 am 09:55 Mostly Cloudy 3 -16.3 -2 -19 80 80 NNE 9 15 30.48 1032 10 16.0934 0 0
10:15 am 10:15 Cloudy 3 -16.2 -2 -18.9 80 80 N 7 11 30.48 1032 10 16.0934 0 0
10:35 am 10:35 Cloudy 3 -16.1 -2 -18.8 80 80 NNE 8 13 30.48 1032 10 16.0934 0 0
10:55 am 10:55 Mostly Cloudy 4 -15.6 -1 -18.5 79 79 N 8 13 30.45 1031 10 16.0934 0 0
11:15 am 11:15 Mostly Cloudy 4 -15.5 -1 -18.5 78 78 NNE 9 15 30.42 1030 10 16.0934 0 0
11:35 am 11:35 Partly Cloudy 5 -15.1 -1 -18.1 78 78 NNE 7 11 30.45 1031 10 16.0934 0 0
11:55 am 11:55 Partly Cloudy 5 -15 0 -18 78 78 N 8 13 30.45 1031 10 16.0934 0 0
12:15 pm 12:15 Mostly Cloudy 6 -14.7 0 -17.9 77 77 NNE 5 7 30.42 1030 10 16.0934 0 0
12:35 pm 12:35 Cloudy 6 -14.3 0 -17.6 76 76 NE 3 6 30.42 1030 10 16.0934 0 0
12:55 pm 12:55 Cloudy 7 -14 1 -17.5 75 75 NNE 3 6 30.39 1029 10 16.0934 0 0
1:15 pm 13:15 Cloudy 7 -13.8 1 -17.2 76 76 NNE 5 7 30.36 1028 10 16.0934 0 0
1:35 pm 13:35 Cloudy 8 -13.5 2 -16.8 76 76 N 5 7 30.36 1028 10 16.0934 0 0
1:55 pm 13:55 Cloudy 8 -13.3 2 -16.8 75 75 N 6 9 30.36 1028 10 16.0934 0 0
2:15 pm 14:15 Cloudy 8 -13.2 2 -16.7 75 75 NNE 6 9 30.36 1028 10 16.0934 0 0
2:35 pm 14:35 Cloudy 8 -13.3 2 -16.8 75 75 N 7 11 30.36 1028 10 16.0934 0 0
2:55 pm 14:55 Cloudy with Haze 8 -13.3 2 -16.5 77 77 N 6 9 30.36 1028 5 8.0467 0 0
3:15 pm 15:15 Cloudy with Light Snow 8 -13.1 3 -16 79 79 N 7 11 30.36 1028 3 4.82802 0 0
3:35 pm 15:35 Cloudy with Light Snow 8 -13.3 3 -16.1 80 80 N 7 11 30.36 1028 3 4.82802 0 0
4:15 pm 16:15 Cloudy with Light Snow 8 -13.3 4 -15.6 83 83 N 5 7 30.36 1028 2.5 4.02335 0 0
4:35 pm 16:35 Cloudy with Light Snow 8 -13.5 4 -15.6 84 84 NNE 6 9 30.33 1027 2.5 4.02335 0 0
4:55 pm 16:55 Cloudy with Light Snow 8 -13.3 4 -15.3 85 85 N 5 7 30.33 1027 1.75 2.816345 0 0
5:15 pm 17:15 Cloudy with Light Snow 8 -13.5 4 -15.3 86 86 N 5 7 30.33 1027 1.75 2.816345 0 0
5:35 pm 17:35 Cloudy with Light Snow 8 -13.5 4 -15.3 86 86 NNW 3 6 30.33 1027 1 1.60934 0 0
5:55 pm 17:55 Cloudy with Light Snow 8 -13.5 4 -15.3 86 86 N 5 7 30.33 1027 2 3.21868 0 0
6:15 pm 18:15 Cloudy with Light Snow 8 -13.5 5 -15.1 88 88 N 7 11 30.33 1027 2 3.21868 0 0
6:35 pm 18:35 Cloudy with Light Snow 8 -13.5 5 -15.1 88 88 NNW 6 9 30.33 1027 2.5 4.02335 0 0
6:50 pm 18:50 Cloudy with Light Snow 8 -13.5 5 -15.1 88 88 NNW 6 9 30.36 1028 2 3.21868 0.01 0.254
7:15 pm 19:15 Cloudy with Light Snow 8 -13.5 5 -15 89 89 NNW 7 11 30.36 1028 2 3.21868 0 0
7:35 pm 19:35 Cloudy with Light Snow 8 -13.3 6 -14.7 89 89 NNW 7 11 30.33 1027 2.5 4.02335 0 0
7:50 pm 19:50 Cloudy with Light Snow 8 -13.1 6 -14.6 89 89 NW 7 11 30.33 1027 3 4.82802 0 0
8:15 pm 20:15 Cloudy with Light Snow 9 -13 6 -14.6 88 88 NW 7 11 30.33 1027 4 6.43736 0 0
8:35 pm 20:35 Cloudy with Light Snow 9 -12.8 6 -14.5 87 87 NW 8 13 30.33 1027 3 4.82802 0 0
8:55 pm 20:55 Cloudy with Light Snow 9 -12.6 6 -14.3 87 87 WNW 6 9 30.36 1028 5 8.0467 0 0
9:15 pm 21:15 Cloudy with Light Snow 9 -12.6 6 -14.2 88 88 WNW 6 9 30.36 1028 3 4.82802 0 0
9:55 pm 21:55 Cloudy with Light Snow 10 -12.4 7 -13.9 89 89 W 5 7 30.36 1028 4 6.43736 0 0
10:15 pm 22:15 Cloudy 10 -12.3 7 -13.8 89 89 Calm 30.33 1027 7 11.26538 0 0
10:35 pm 22:35 Cloudy with Light Snow 10 -12.2 7 -13.7 89 89 W 6 9 30.33 1027 4 6.43736 0.01 0.254
10:55 pm 22:55 Cloudy 10 -12.2 7 -13.7 89 89 WNW 3 6 30.33 1027 7 11.26538 0.01 0.254
11:15 pm 23:15 Partly Cloudy 10 -12.3 7 -13.8 89 89 W 5 7 30.33 1027 10 16.0934 0 0
11:35 pm 23:35 Partly Cloudy 9 -12.7 6 -14.2 89 89 W 6 9 30.33 1027 10 16.0934 0 0
11:55 pm 23:55 Partly Cloudy 7 -13.7 4 -15.3 88 88 W 6 9 30.33 1027 10 16.0934 0 0

Powered by AerisWeather